Tracking 19709 objects as of 20-Jun-2019
HD Live streaming from Space Station
objects crossing your sky now

FLOCK 4A 15

Track FLOCK 4A 15 now!
10-day predictions
FLOCK 4A 15 is classified as:


NORAD ID: 44100
Int'l Code: 2019-018Y
Perigee: 497.4 km
Apogee: 514.8 km
Inclination: 97.5 °
Period: 94.6 minutes
Semi major axis: 6877 km
RCS: Unknown
Launch date: April 1, 2019
Source: United States (US)
Launch site: SRIHARIKOTA (SRI)
aabbcc
Your satellite tracking list
Your tracking list is empty




NASA's NSSDC Master Catalog

Two Line Element Set (TLE):
1 44100U 19018Y   19171.47128727  .00000575  00000-0  27997-4 0  9990
2 44100  97.4564 231.4016 0012601  24.0945 336.0878 15.22286384 12185
Source of the keplerian elements: AFSPC